Hourly Data Report for May 03, 2004

SHERBROOKE A
QUEBEC

45°26'00.000" N
71°41'00.000" W
241.40 m
7028124
71610
YSC

Download Data

Hourly Data (May 2004)
Hourly Data Report for May 3, 2004
TIME
LST
Temp Definition
°C
Dew Point Definition
°C
Rel Hum Definition
%
Precip. Amount Definition
mm

Wind Dir Definition
10's deg

Wind Spd Definition
km/h
Visibility Definition
km
Stn Press Definition
kPa
Hmdx Definition


Wind Chill Definition


Weather Definition


00:00 19.1 14.0 72   18 13 15.0 97.67      
01:00 19.7 14.3 71   20 11 15.0 97.63      
02:00 18.6 15.0 80   24 11 6.4 97.60     Rain
03:00 14.6 13.5 93   28 20 15.0 97.71     Rain
04:00 10.7 9.6 93   27 13 15.0 97.89      
05:00 10.0 9.1 94   26 11 15.0 98.03      
06:00 8.5 7.3 92   27 19 15.0 98.14      
07:00 8.2 6.6 90   27 9 19.3 98.29     Rain
08:00 7.9 6.8 93   29 15 12.9 98.42     Rain
09:00 7.9 6.1 88   27 20 16.1 98.53     Rain
10:00 7.9 6.0 88   27 11 16.1 98.60     Drizzle
11:00 8.0 6.1 88   30 6 24.1 98.56     Cloudy
12:00 8.8 5.5 80   30 9 24.1 98.54     Cloudy
13:00 9.3 5.2 76   27 11 24.1 98.53     Cloudy
14:00 9.6 5.1 73   28 13 24.1 98.49     Cloudy
15:00 9.3 4.6 72   29 15 24.1 98.47     Cloudy
16:00 8.7 4.1 73   28 15 24.1 98.45     Cloudy
17:00 8.5 4.0 73   29 11 15.0 98.40      
18:00 7.9 3.4 73   28 6 15.0 98.38      
19:00 6.9 4.0 82   31 7 15.0 98.37     Rain
20:00 6.1 4.5 89   26 7 12.9 98.44     Rain
21:00 5.8 4.4 91   25 11 8.0 98.45     Rain
22:00 5.3 3.7 89   25 7 12.9 98.41     Rain
23:00 5.0 3.5 90   26 15 9.7 98.35     Rain

Notes on Data Quality.

Legend

  • E = Estimated
  • M = Missing
  • NA = Not Available*
  • [empty] = Indicates an unobserved value
Date modified: